Zurück zum Katalog

STARLINK-36843

AktivKommunikationVLEO
NORAD 67856·PAYLOAD·🇺🇸 United States

Gestartet Feb 20, 2026 von Vandenberg Space Force Base

Loading…

Nächste Überflüge (nächste 24 Stunden)

TLE

AktuellSource: CelesTrak SupGP

Epoche: Sep 15, 2026, 03:33 UTC

1 67856C 26034G   26258.14840278  .00001919  00000+0  61706-4 0  2585
2 67856  53.1587  42.9937 0001232  92.0875 145.9427 15.31695396    17

Verfolge STARLINK-36843 in Echtzeit mit AllMySat

Download on the App Store